Regional Weather Roundup
Issued by NWS Cleveland, OH

Home | Current Version | Previous Version | Graphics & Text | Print | Product List | Glossary On
Versions: 1 2 3 4 5 6 7 8 9 10 11 12 13 14 15 16 17 18 19 20 21 22 23 24 25 26 27 28 29 30 31 32 33 34 35 36 37 38 39 40 41 42 43 44 45 46 47 48 49 50
000
ASUS41 KCLE 230910
RWRCLE
OHIO REGIONAL WEATHER ROUNDUP
NATIONAL WEATHER SERVICE WILMINGTON, OH
500 AM EDT THU OCT 23 2014

NOTE: "FAIR" INDICATES FEW OR NO CLOUDS BELOW 12,000 FEET WITH NO
SIGNIFICANT WEATHER AND/OR OBSTRUCTIONS TO VISIBILITY.

OHZ001>008-015>018-024>027-034-035-043-044-231000-
   NORTHWEST OHIO

CITY           SKY/WX    TMP DP  RH WIND       PRES   REMARKS
DEFIANCE       PTCLDY    32  30  92 CALM      30.27F FOG
FINDLAY        CLEAR     38  35  89 W3        30.25S FOG
TOLEDO EXPRESS CLEAR     34  32  92 CALM      30.26S
TOLEDO METCALF CLEAR     38  35  89 CALM      30.26S
LIMA           CLEAR     38  36  92 NW3       30.26S FOG
$$

OHZ009>014-019>023-028>033-038-089-231000-
   NORTHEAST OHIO

CITY           SKY/WX    TMP DP  RH WIND       PRES   REMARKS
CLE-HOPKINS    MOCLDY    46  44  93 NW5       30.22S
CLE-LAKEFRONT  PTCLDY    52  46  80 N15       30.19R
CUY CO. ARPT   NOT AVBL
LORAIN-ELYRIA  PTCLDY    44  42  93 NW7       30.21F
ASHTABULA      PTCLDY    43  41  93 NW3       30.18S
AKRON-CANTON   PTCLDY    46  43  89 NW8       30.17S
WOOSTER        CLEAR     45  42  89 NW9       30.19F
MANSFIELD      CLOUDY    41  41 100 NW6       30.21S
YOUNGSTOWN     MOCLDY    44  42  93 N8        30.16S
$$

OHZ042-051>053-060>062-070>072-077>081-231000-
  SOUTHWEST OHIO

CITY           SKY/WX    TMP DP  RH WIND       PRES   REMARKS
CINC-COVINGTON CLOUDY    47  40  76 CALM      30.25F
CINC-LUNKEN    CLOUDY    45  42  89 CALM      30.26F
HAMILTON       CLOUDY    42  40  92 CALM      30.26F
DAYTON         CLEAR     41  38  89 CALM      30.26F
WRIGHT-PAT AFB PTCLDY    42  39  89 W2        30.25F
DAYTON GENERAL PTCLDY    41  38  89 CALM      30.24F
WILMINGTON     PTCLDY    43  38  82 N6        30.23F
$$

OHZ036-037-039>041-045>050-054>059-063>069-073>076-082>088-231000-
  CENTRAL AND SOUTHEAST OHIO

CITY           SKY/WX    TMP DP  RH WIND       PRES   REMARKS
COLUMBUS       CLEAR     41  38  89 NW3       30.23R
OSU AIRPORT    CLEAR     41  38  89 NW7       30.23S
BOLTON FIELD   CLEAR     40  39  95 NW6       30.24R
RICKENBACK AFB CLEAR     41  39  91 NW3       30.23S
NEWARK         CLEAR     42  38  85 CALM      30.21S
MARION         PTCLDY    39  38  96 NW6       30.24R FOG
LANCASTER      CLEAR     42  39  89 NW3       30.22S
ZANESVILLE     CLOUDY    43  41  93 CALM      30.20R
NEW PHILLY     PTCLDY    42  41  96 N3        30.19S FOG
$$



USA.gov is the U.S. government's official web portal to all federal, state and local government web resources and services.